Weather Service Report


219 
ASCA44 KEWX 010020
RWRMX 

LATIN AMERICA AND CARIBBEAN REGIONAL WEATHER ROUNDUP
NATIONAL WEATHER SERVICE AUSTIN/SAN ANTONIO TX
700 PM CDT TUE MAY 31 2016

NOTE: "FAIR" INDICATED FEW OR NO CLOUDS BELOW 12,000 FEET WITH NO
SIGNIFICANT WEATHER AND/OR OBSTRUCTIONS TO VISIBILITY.

BAJA CALIFORNIA
  
CITY           SKY/WX    TMP DP  RH WIND       PRES   REMARKS
LORETO         SUNNY     86  70  58 NE6       29.72F HX  90           
LA PAZ         PTSUNNY   84  54  34 NW7       29.78S                  
MEXICALI       SUNNY    100  37  11 SE7       29.65F HX  95           
S.J. DEL CABO  MOSUNNY   88  52  29 E14       29.77F                  
TIJUANA        CLOUDY    63  55  77 W8        29.88F                  

NORTHWESTERN MEXICO
  
CITY           SKY/WX    TMP DP  RH WIND       PRES   REMARKS
CULIACAN       CLOUDY    90  66  45 SW12      29.79F HX  92           
DURANGO        PTSUNNY   81  36  19 S21       30.04R                  
GUAYMAS        SUNNY     86  57  37 SW7       29.68F                  
HERMOSILLO     SUNNY     97  34  11 SW12      29.74S HX  91           
CD. JUAREZ     CLOUDY    79  46  31 S15       29.85S                  
LOS MOCHIS     PTSUNNY   86  61  42 SW10      29.75F                  
OBREGON        SUNNY     91  54  27 S17       29.70F                  

NORTHEASTERN MEXICO
  
CITY           SKY/WX    TMP DP  RH WIND       PRES   REMARKS
CHIHUAHUA      PTSUNNY   79  48  34 E16       29.89R                  
MATAMOROS      PTSUNNY   84  73  70 SE9       29.75R HX  91           
MONCLOVA         N/A    N/A N/A N/A MISG        N/A                   
MONTERREY      PTSUNNY   88  66  48 SE10      29.73F HX  90           
NUEVO LAREDO   PTSUNNY   95  70  43 CALM      29.69R HX 101           
PIEDRAS NEGRAS   N/A    N/A N/A N/A MISG        N/A                   
REYNOSA        PTSUNNY   86  70  58 E17       29.72R HX  90           
SALTILLO       PTSUNNY   77  64  65 E9        29.98F                  
TORREON        PTSUNNY   93  52  24 N10       29.83S HX  90           
CD. VICTORIA   MOSUNNY   88  73  62 SE10      29.73F HX  96           

WESTERN MEXICO
  
CITY           SKY/WX    TMP DP  RH WIND       PRES   REMARKS
AGUASCALIENTES MOSUNNY   86  30  13 SW6       30.02F                  
COLIMA         MOSUNNY   82  63  51 SW17      29.88R                  
DEL BAJIO      MOSUNNY   88  46  23 NW5       30.07F                  
GUADALAJARA    MOSUNNY   88  32  13 W16       29.96F                  
MANZANILLO     MOSUNNY   82  75  78 W17       29.72S                  
MAZATLAN       MOSUNNY   84  73  70 W7        29.78S HX  91           
P. VALLARTA    MOSUNNY   82  75  78 SW8       29.79F                  
URUAPAN        SUNNY     82  59  44 CALM      30.02S                  
ZACATECAS      MOSUNNY   81  41  24 CALM      30.08F                  

CENTRAL MEXICO
  
CITY           SKY/WX    TMP DP  RH WIND       PRES   REMARKS
CUERNAVACA     PTSUNNY   86  50  28 CALM      29.95S                  
MEXICO CITY    CLOUDY    75  52  43 E15       30.17R                  
MORELIA        PTSUNNY   77  55  47 SW13      30.06S                  
POZA RICA      SUNNY     90  75  62 E9        29.76S HX 100           
PUEBLA         CLOUDY    63  50  63 CALM      30.25R THUNDER          
QUERETARO      PTSUNNY   81  50  34 N6        30.10S                  
S. LUIS POTOSI CLOUDY    79  52  38 N17       30.04R                  
TAMPICO        MOSUNNY   86  75  70 SE17      29.74S HX  95           
TOLUCA         LGT RAIN  61  36  39 SW8       30.27F                  

SOUTHERN MEXICO
  
CITY           SKY/WX    TMP DP  RH WIND       PRES   REMARKS
ACAPULCO       MOSUNNY   88  75  66 SW10      29.75R HX  97           
B. DE HUATULCO CLOUDY    81  68  65 CALM      29.83S HAZE             
OAXACA         CLOUDY    72  59  64 NW6       30.07R                  
P. ESCONDIDO   CLOUDY    86  79  79 S5        29.87R HX  99           
VERACRUZ       PTSUNNY   86  75  70 E6        29.77R HX  95           
ZIHUATANEJO    SUNNY     88  75  66 SW9       29.75S HX  97           

YUCATAN PENINSULA
  
CITY           SKY/WX    TMP DP  RH WIND       PRES   REMARKS
CAMPECHE       CLEAR     86  79  79 N17G29    29.74R HX  99           
CANCUN         MOCLDY    84  75  74 E8        29.86S HX  92           
CHETUMAL       PTCLDY    86  77  74 SE17      29.80F HX  97           
CD. DEL CARMEN PTCLDY    88  79  74 N14       29.74S HX 102           
COZUMEL        MOCLDY    81  73  78 E10       29.86R                  
MERIDA         PTCLDY    88  70  55 NE13      29.82R HX  92           
MINATITLAN     SUNNY     86  68  54 N12       29.70S                  
TAPACHULA      PTCLDY    86  79  79 SW12      29.73R HX  99           
TUX. GUTIERREZ PTCLDY    91  64  40 NW15      29.76S HX  93           
VILLAHERMOSA   PTCLDY    90  77  66 N8        29.76R HX 102           

CENTRAL AMERICA
  
CITY           SKY/WX    TMP DP  RH WIND       PRES   REMARKS
BELIZE CITY    PTCLDY    86  79  79 E12       29.82S HX  99           
MANAGUA        TSTM      75  72  88 SW5       29.77R                  

CARIBBEAN
  
CITY           SKY/WX    TMP DP  RH WIND       PRES   REMARKS
ARUBA          PTCLDY    84  77  79 E24G36    29.80R HX  94           
CURACAO        PTCLDY    82  75  78 E20       29.86R                  
KINGSTON       LGT RAIN  81  75  83 SE12      29.86S                  
NASSAU         PTCLDY    81  75  83 NE5       29.96R                  
SAN JUAN       PTCLDY    79  77  94 E9        29.98R                  
ST. CROIX      PTCLDY    82  75  78 E16       29.97R                  
ST. KITTS      MOCLDY    81  75  83 E13       29.97S                  
ST. MAARTEN    LGT RAIN  82  75  78 E15       29.97S                  
ST. THOMAS     MOCLDY    84  75  74 E14G22    29.97R HX  92           

$$

  

Return to Home page


Western Regional Climate Center, wrcc@dri.edu